Probability
0 0 0 0 0 0 0 0 0 0 0 0 0 0 0 0 0 0 0 0 0 0 0 0 0 0 0 0 0 0 0 0 0 0 0 0 0 0 0 0 0 0 1 1
0 0 0 0 0 0 0 0 0 0 0 0 0 0 0 0 0 0 0 0 0 0 0 0 0 0 0 0 0 0 0 0 0 0 0 0 0 0 0 0 0 0 0 1
0 0 0 0 0 0 0 0 0 0 0 0 0 0 0 0 0 0 0 0 0 0 0 0 0 0 0 0 0 0 0 0 0 0 0 0 0 0 0 0 0 0 0 0
0 0 0 0 0 0 0 0 0 0 0 0 0 0 0 0 0 0 0 0 0 0 0 0 0 0 0 0 0 0 0 0 0 0 0 0 0 0 0 0 0 0 0 0
0 0 0 0 0 0 0 0 0 0 0 0 0 0 0 0 0 0 0 0 0 0 0 0 0 0 0 0 0 0 0 0 0 0 0 0 0 0 0 0 0 0 0 0
0 0 0 0 0 0 0 0 0 0 0 0 0 0 0 0 0 0 0 0 0 0 0 0 0 0 0 0 0 0 0 0 0 0 0 0 0 0 0 0 0 0 0 0
0 0 0 0 0 0 0 0 0 0 0 0 0 0 0 0 0 0 0 0 0 0 0 0 0 0 0 0 0 0 0 0 0 0 0 0 0 0 0 0 0 0 0 0
0 0 0 0 0 0 0 0 0 0 0 0 0 0 0 0 0 0 0 0 0 0 0 0 0 0 0 0 0 0 0 0 0 0 0 0 0 0 0 0 0 0 0 0
0 0 0 0 0 0 0 0 0 0 0 0 0 0 0 0 0 0 0 0 0 0 0 0 0 0 0 0 0 0 0 0 0 0 0 0 0 0 0 0 0 0 0 0
0 0 0 0 0 0 0 0 0 0 0 0 0 0 0 0 0 0 0 0 0 0 0 0 0 0 0 0 0 0 0 0 0 0 0 0 0 0 0 0 0 0 0 0
0 0 0 0 0 0 0 0 0 0 0 0 0 0 0 0 0 0 0 0 0 0 0 0 0 0 0 0 0 0 0 0 0 0 0 0 0 0 0 0 0 0 0 0
0 0 0 0 0 0 0 0 0 0 0 0 0 0 0 0 0 0 0 0 0 0 0 0 0 0 0 0 0 0 0 0 0 0 0 0 0 0 0 0 0 0 0 0
0 0 0 0 0 0 0 0 0 0 0 0 0 0 0 0 0 0 0 0 0 0 0 0 0 0 0 0 0 0 0 0 0 0 0 0 0 0 0 0 0 0 0 0
0 0 0 0 0 0 0 0 0 0 0 0 0 0 0 0 0 0 0 0 0 0 0 0 0 0 0 0 0 0 0 0 0 0 0 0 0 0 0 0 0 0 0 0
0 0 0 0 0 0 0 0 0 0 0 0 0 0 0 0 0 0 0 0 0 0 0 0 0 0 0 0 0 0 0 0 0 0 0 0 0 0 0 0 0 0 0 0
0 0 0 0 0 0 0 0 0 0 0 0 0 0 0 0 0 0 0 0 0 0 0 0 0 0 0 0 0 0 0 0 0 0 0 0 0 0 0 0 0 0 0 0
0 0 0 0 0 0 0 0 0 0 0 0 0 0 0 0 0 0 0 0 0 0 0 0 0 0 0 0 0 0 0 0 0 0 0 0 0 0 0 0 0 0 0 0
0 0 0 0 0 0 0 0 0 0 0 0 0 0 0 0 0 0 0 0 0 0 0 0 0 0 0 0 0 0 0 0 0 0 0 0 0 0 0 0 0 0 0 0
0 0 0 0 0 0 0 0 0 0 0 0 0 0 0 0 0 0 0 0 0 0 0 0 0 0 0 0 0 0 0 0 0 0 0 0 0 0 0 0 0 0 0 0
0 0 0 0 0 0 0 0 0 0 0 0 0 0 0 0 0 0 0 0 0 0 0 0 0 0 0 0 0 0 0 0 0 0 0 0 0 0 0 0 0 0 0 0
0 0 0 0 0 0 0 0 0 0 0 0 0 0 0 0 0 0 0 0 0 0 0 0 0 0 0 0 0 0 0 0 0 0 0 0 0 0 0 0 0 0 0 0
0 0 0 0 0 0 0 0 0 0 0 0 0 0 0 0 0 0 0 0 0 0 0 0 0 0 0 0 0 0 0 0 0 0 0 0 0 0 0 0 0 0 0 0
0 0 0 0 0 0 0 0 0 0 0 0 0 0 0 0 0 0 0 0 0 0 0 0 0 0 0 0 0 0 0 0 0 0 0 0 0 0 0 0 0 0 0 0
0 0 0 0 0 0 0 0 0 0 0 0 0 0 0 0 0 0 0 0 0 0 0 0 0 0 0 0 0 0 0 0 0 0 0 0 0 0 0 0 0 0 0 0
0 0 0 0 0 0 0 0 0 0 0 0 0 0 0 0 0 0 0 0 0 0 0 0 0 0 0 0 0 0 0 0 0 0 0 0 0 0 0 0 0 0 0 0
0 0 0 0 0 0 0 0 0 0 0 0 0 0 0 0 0 0 0 0 0 0 0 0 0 0 0 0 0 0 0 0 0 0 0 0 0 0 0 0 0 0 0 0
0 0 0 0 0 0 0 0 0 0 0 0 0 0 0 0 0 0 0 0 0 0 0 0 0 0 0 0 0 0 0 0 0 0 0 0 0 0 0 0 0 0 0 0
Wind_Speed
5 5 3 5 7 6 8 8 9 9 9 12 8 6 6 5 4 4 4 3 3 3 3 3 3 3 3 3 3 3 2 3 3 3 3 3 3 3 3 3 4 4 4 4
4 4 4 7 9 10 10 8 9 9 12 9 6 4 4 4 4 5 5 4 4 3 3 3 4 4 4 4 4 3 3 3 2 2 2 3 3 3 3 3 3 3 4 4
5 4 4 9 9 9 7 7 8 11 11 5 4 4 5 5 4 5 5 4 4 4 3 4 4 3 4 4 4 4 3 3 2 2 2 2 3 3 3 3 3 3 3 4
2 2 8 8 2 6 7 8 8 8 6 5 6 5 4 4 4 5 4 4 4 3 3 3 3 3 3 3 3 3 3 2 2 1 2 2 2 3 3 3 3 3 3 4
2 4 9 7 3 4 5 7 6 7 7 6 4 4 4 3 2 4 4 4 3 3 3 3 3 3 3 3 3 3 3 3 3 2 2 2 3 3 3 3 3 3 3 3
3 4 8 6 2 2 2 6 3 4 6 4 2 3 5 2 3 3 3 3 2 2 2 2 2 2 2 3 3 3 3 3 3 2 2 3 3 3 2 2 2 2 2 3
5 6 10 5 1 3 3 6 2 3 4 3 4 6 5 4 4 3 3 3 2 2 2 2 2 1 2 3 3 4 3 3 2 2 2 2 2 2 2 2 2 2 2 2
5 6 10 2 4 6 5 2 2 3 3 3 5 5 5 4 4 3 3 3 2 1 2 2 1 1 2 3 3 3 2 2 2 2 1 0 1 1 2 3 2 2 2 1
8 8 3 4 5 4 2 2 3 3 3 3 4 4 5 4 3 3 2 2 2 1 2 3 2 1 2 3 2 2 2 2 2 1 1 0 1 2 2 2 2 2 2 1
5 7 5 4 4 3 3 4 4 3 3 2 4 4 4 3 3 3 2 2 2 1 2 3 3 2 2 2 2 1 1 2 1 1 1 1 0 1 1 2 3 2 2 2
6 6 4 4 4 5 4 3 3 3 2 3 3 4 4 3 3 3 3 2 1 2 2 3 3 2 2 2 1 1 1 1 1 1 1 1 1 0 0 1 2 3 2 2
7 5 4 5 3 2 3 4 4 3 3 2 2 3 3 3 3 3 3 2 2 2 3 3 2 2 2 2 1 0 1 1 1 1 1 1 1 2 2 2 2 1 2 1
5 3 4 5 3 2 3 4 3 3 3 3 3 2 2 3 2 2 2 2 3 3 3 2 2 2 2 1 1 0 0 0 0 0 0 1 1 2 1 2 3 3 3 4
3 2 3 3 3 3 3 3 2 2 2 2 2 2 2 2 2 2 3 3 2 2 2 2 2 2 2 1 0 0 0 0 0 0 0 1 1 1 1 2 2 2 3 4
3 3 4 3 3 3 3 2 2 3 2 2 2 1 2 2 3 3 3 2 1 1 1 1 2 3 1 0 0 0 0 0 0 0 1 1 1 2 2 2 2 2 2 2
3 2 2 3 3 3 3 3 3 4 3 2 2 2 2 2 2 2 2 1 1 1 2 1 2 2 1 0 0 0 0 0 1 1 1 1 2 2 2 2 2 2 1 1
2 3 3 3 4 4 3 3 3 3 3 3 3 2 1 1 2 2 2 2 1 1 2 2 2 2 1 0 0 0 0 1 1 1 1 1 2 2 2 2 2 1 1 1
4 4 3 4 4 4 4 3 2 2 3 3 2 1 1 1 2 3 2 2 1 2 2 2 1 1 1 0 1 1 1 1 1 1 1 1 2 2 2 2 2 1 1 1
2 3 3 3 3 3 3 3 3 2 2 1 1 1 2 2 2 2 1 1 1 2 3 2 2 1 1 1 0 1 1 1 1 1 1 1 2 2 2 2 1 1 1 1
2 2 2 2 2 2 2 3 2 2 2 1 1 1 1 2 1 1 1 1 3 3 2 2 1 1 1 1 1 1 1 2 2 1 1 1 1 1 1 1 1 1 1 1
3 2 2 2 3 2 2 2 2 2 2 1 1 2 2 2 1 1 1 2 3 2 2 2 1 1 1 1 1 2 2 2 1 1 1 1 1 1 1 1 1 1 1 1
2 2 2 2 2 3 3 2 1 2 2 1 1 1 1 1 1 1 2 2 2 3 2 1 1 2 1 2 2 2 2 1 1 1 1 1 1 1 1 1 1 1 1 1
2 2 2 2 2 2 3 2 2 1 1 1 1 1 1 1 1 1 2 2 2 3 1 1 2 2 1 2 2 1 1 1 1 1 1 1 1 1 1 1 1 1 1 1
1 2 2 2 1 2 2 3 2 2 1 1 1 1 1 1 1 1 1 3 3 3 1 2 2 1 2 2 1 1 1 1 1 1 0 0 1 1 1 1 1 1 1 2
1 1 1 1 2 2 2 2 2 2 2 1 1 1 1 1 1 1 1 1 3 2 2 2 2 2 2 1 1 1 0 1 1 1 1 1 1 1 1 1 1 1 1 2
1 1 1 1 1 1 1 1 1 2 1 2 2 2 1 1 1 1 1 1 2 2 2 1 1 1 1 1 1 0 0 0 1 0 0 0 1 1 1 1 1 2 2 2
1 1 1 1 1 1 1 1 1 2 1 1 2 1 1 1 1 1 1 1 1 1 1 1 1 1 1 1 1 1 1 0 0 0 1 1 1 1 1 2 2 2 2 2
Wind_Direction
257 268 251 246 250 223 209 214 222 244 248 265 271 274 283 291 303 311 313 307 300 300 304 314 317 317 315 316 318 309 284 268 261 251 232 220 213 213 207 206 209 208 207 213
278 264 260 268 258 240 236 234 242 260 268 262 270 275 285 287 289 293 294 294 296 299 303 304 308 313 317 314 313 307 288 273 267 246 222 214 206 203 198 202 203 198 205 202
267 290 320 271 243 220 222 220 210 236 251 274 289 288 277 275 271 271 278 283 288 286 281 285 293 300 301 304 310 307 296 287 279 245 221 213 196 184 193 201 200 200 205 200
269 351 251 249 204 198 218 241 229 243 260 262 264 279 269 256 254 271 280 282 282 283 286 294 302 308 311 315 311 306 302 298 291 252 228 209 190 191 195 200 202 207 205 205
202 250 273 282 235 184 206 264 230 231 261 276 297 314 289 263 249 258 270 277 276 275 283 294 300 309 317 315 313 311 307 304 294 267 226 204 204 204 203 204 211 208 208 205
187 224 251 258 220 183 143 279 244 215 253 273 325 295 280 319 320 305 301 295 292 300 312 303 303 314 312 306 308 304 304 303 299 279 234 213 213 210 204 201 205 208 218 209
211 235 261 257 206 137 184 253 276 227 248 237 224 240 275 309 311 302 301 301 306 307 299 292 303 314 299 301 296 300 310 313 310 295 252 213 204 197 184 184 180 189 202 218
187 217 253 196 143 192 229 291 292 273 258 244 252 274 288 298 301 308 313 313 308 305 308 315 320 313 302 298 304 317 319 319 320 314 286 151 162 182 175 166 162 168 168 204
199 219 246 178 207 238 266 280 280 273 278 264 272 283 294 296 300 305 304 307 315 311 318 321 323 301 288 301 319 324 328 320 316 322 332 7 179 182 167 160 167 181 179 192
248 258 249 243 256 275 268 260 275 278 280 273 273 283 290 292 298 303 304 307 319 322 310 308 320 323 296 303 316 324 332 332 342 8 14 21 90 183 174 174 177 183 182 186
251 271 297 266 239 252 271 281 291 297 278 261 262 277 277 282 287 289 297 304 299 280 279 291 311 317 310 310 321 347 348 350 4 27 64 43 28 18 188 216 201 184 191 184
233 231 222 259 273 263 268 279 277 281 293 287 250 261 273 275 279 282 284 287 289 285 285 294 304 305 309 306 289 63 1 1 14 48 70 83 85 49 42 53 60 121 150 145
240 256 238 265 284 287 272 278 283 269 266 285 289 262 262 275 283 286 284 279 273 276 280 286 289 290 293 290 278 167 250 302 318 82 119 129 125 117 82 48 57 73 86 92
253 278 276 271 277 295 290 289 297 303 298 286 283 284 273 281 288 282 277 276 277 281 282 278 276 282 285 271 266 41 6 303 346 170 162 145 142 139 132 123 100 70 63 70
267 242 248 278 299 309 312 316 317 310 313 310 302 288 272 268 275 280 283 286 287 283 285 288 288 293 300 282 57 46 338 287 74 100 108 117 123 123 118 115 108 95 74 65
295 282 265 272 286 302 314 307 291 291 294 294 297 292 280 269 278 290 296 283 235 264 279 281 285 298 313 1 51 50 83 360 67 95 105 108 117 124 124 123 115 103 91 70
264 278 277 283 285 290 286 280 277 281 284 280 278 286 297 307 315 312 311 305 277 279 277 271 281 312 326 321 149 148 123 122 78 70 105 119 125 127 126 124 121 112 99 100
241 255 253 256 268 279 288 290 287 279 273 273 284 291 276 265 269 282 296 314 329 326 308 294 300 336 329 273 160 144 132 130 120 117 116 120 117 118 117 120 125 123 98 74
277 273 276 277 272 266 274 282 282 278 283 280 254 249 253 258 264 279 298 323 300 294 299 296 303 330 290 255 149 142 137 131 118 105 105 110 95 102 114 121 124 125 122 99
318 309 302 304 306 281 279 286 290 294 293 272 242 265 290 290 289 294 296 269 263 270 287 295 299 285 271 237 149 132 139 142 141 130 116 115 114 114 119 127 132 134 131 127
321 323 324 322 323 317 299 294 292 293 300 281 226 239 268 292 296 276 264 287 297 303 304 309 332 299 267 199 149 128 133 135 134 136 137 136 130 130 136 137 140 150 160 164
316 319 318 323 328 329 329 324 302 295 304 300 276 271 294 307 312 298 258 257 289 310 321 288 284 285 290 117 113 119 120 120 122 126 134 142 148 154 161 159 169 191 193 195
318 317 318 320 318 321 334 336 325 312 303 292 284 279 267 270 264 264 288 292 302 307 321 284 299 308 90 104 103 115 120 125 131 138 152 164 173 181 190 199 210 213 213 219
330 329 326 333 349 355 341 334 333 327 312 300 288 276 274 296 300 272 275 311 325 331 347 328 337 355 88 100 109 119 127 135 147 154 170 183 194 206 215 220 229 234 231 234
325 333 346 353 345 328 321 329 340 343 346 347 344 338 306 258 265 305 323 327 336 358 12 350 351 19 67 92 112 131 158 186 185 175 182 190 213 226 240 242 241 248 254 253
319 310 301 294 302 317 328 335 336 338 345 341 337 336 337 340 339 351 348 346 347 6 21 7 359 5 44 73 88 85 81 353 347 358 200 227 241 248 256 261 263 261 262 262
348 342 343 340 337 333 328 322 315 313 311 304 307 313 328 350 6 3 360 4 7 11 14 14 12 10 18 32 39 32 26 13 338 296 272 257 255 256 260 259 264 265 264 262